{"data":{"norad_id":51811,"intl_designator":"2022-017AV","name":"STARLINK-3569","alt_names":[],"object_type":"PAYLOAD","status":"ACTIVE","operator":null,"country":"US","launch_date":"2022-02-25","launch_site_code":"AFWTR","launch_vehicle":null,"mission":null,"orbit_class":"UNKNOWN","rcs_meters":null,"size_class":null,"mass_kg":null,"dimensions":null,"purposes":["comms"],"wikipedia_slug":null,"has_3d_model":false,"image_url":null,"decayed_at":null,"tle_current":{"epoch":"2026-05-25T00:04:19.816896Z","epoch_age_seconds":75626,"freshness":"FRESH","line1":"1 51811U 22017AV  26145.00300714 -.00000339  00000+0 -32322-5 0  9994","line2":"2 51811  53.2167 356.5359 0001633  83.6707 276.4471 15.08838118235488","mean_motion":15.08838118,"eccentricity":0.0001633,"inclination_deg":53.2167,"raan_deg":356.5359,"arg_perigee_deg":83.6707,"mean_anomaly_deg":276.4471,"bstar":-3.2322e-6,"rev_number":23548,"period_min":95.437673718686,"perigee_km":538.61945068427,"apogee_km":540.87883229808,"semimajor_km":6917.8861414912,"source":"CELESTRAK","updated_at":"2026-05-25T13:38:16.958114Z"}}}